Regional Weather Roundup
Issued by NWS

Home | Current Version | Previous Version | Text Only | Print | Product List | Glossary Off
Versions: 1 2 3 4 5 6 7 8 9 10 11 12 13 14 15 16 17 18 19 20 21 22 23 24 25 26 27 28 29 30 31 32 33 34 35 36 37 38 39 40 41 42 43 44 45 46 47 48 49 50

000
ASUS43 KDMX 280001
RWRIA

WEATHER ROUNDUP FOR IOWA
NATIONAL WEATHER SERVICE DES MOINES IA
700 PM CDT SAT MAY 27 2017

NOTE: "FAIR" INDICATES FEW OR NO CLOUDS BELOW 12,000 FEET WITH NO
SIGNIFICANT WEATHER AND/OR OBSTRUCTIONS TO VISIBILITY.

* - THESE STATIONS ARE NOT NWS STATIONS...THUS NOT UNDER NWS
QUALITY CONTROL.  THEY ALSO DO NOT REPORT WEATHER SUCH
AS PRECIPITATION OR FOG.

IAZ001>003-012>014-020>022-031>034-043>046-280100-
   NORTHWEST IOWA

CITY           SKY/WX    TMP DP  RH WIND       PRES   REMARKS
CARROLL *      SUNNY     70  55  60 E8        29.90R
CHEROKEE *     CLOUDY    67  52  58 NW6       29.91S
DENISON *      SUNNY     68  50  52 E7        29.91S
LE MARS *      PTSUNNY   66  52  59 NW7       29.93S
ORANGE CITY *  PTSUNNY   64  54  68 NW8       29.92S
SHELDON *      MOSUNNY   68  46  45 W8        29.90S
SIOUX CITY     MOSUNNY   68  53  58 N14       29.91S
6HR MIN TEMP:  68; 6HR MAX TEMP:  74;

SPENCER        CLOUDY    69  49  48 CALM      29.90S
6HR MIN TEMP:  62; 6HR MAX TEMP:  71; 6HR PCP: TRACE;

STORM LAKE *   CLOUDY    68  48  49 N9        29.91R
$$

IAZ055>058-069>071-079>083-090>094-280100-
   SOUTHWEST IOWA

CITY           SKY/WX    TMP DP  RH WIND       PRES   REMARKS
ATLANTIC *     SUNNY     66  55  68 NE8       29.89S
AUDUBON *      MOSUNNY   66  57  72 E3        29.91S
CLARINDA *     MOSUNNY   70  61  73 N7        29.88F
COUNCIL BLFS * SUNNY     66  57  72 NE7       29.90S
CRESTON *      MOSUNNY   68  59  73 NE9       29.88S
HARLAN  *      SUNNY     68  54  60 NE9       29.93S
LAMONI         SUNNY     73  61  65 N6        29.85S
6HR MIN TEMP:  67; 6HR MAX TEMP:  74;

RED OAK *      PTSUNNY   68  59  73 N9        29.89R
SHENANDOAH *   PTSUNNY   70  59  68 N8        29.88S
$$

IAZ047>049-059>061-072>074-084-280100-
   CENTRAL IOWA

CITY           SKY/WX    TMP DP  RH WIND       PRES   REMARKS
AMES           SUNNY     65  55  70 E6        29.89R
6HR MIN TEMP:  59; 6HR MAX TEMP:  67; 6HR PCP:  0.29;

ANKENY *       CLOUDY    64  57  77 NE8G15    29.89S
BOONE *        SUNNY     66  57  72 E8        29.89R
CHARITON *     CLOUDY    66  61  82 N8G15     29.86R
DES MOINES     PTSUNNY   67  57  70 NE10      29.87S
6HR MIN TEMP:  63; 6HR MAX TEMP:  69; 6HR PCP:  0.02;

GRINNELL*      CLOUDY    61  56  84 N9        29.89S
KNOXVILLE *    CLOUDY    64  59  82 NE10G17   29.85S
MARSHALLTOWN   LGT RAIN  60  57  89 NE10      29.87F
6HR MIN TEMP:  59; 6HR MAX TEMP:  70; 6HR PCP:  0.97;

NEWTON *       CLOUDY    61  55  82 NE12      29.87S
PELLA *        CLOUDY    66  58  75 NE9       29.86F
PERRY *        CLOUDY    66  59  76 E8        29.90R
$$

IAZ004>006-015-016-023>025-035-036-280100-
   NORTH CENTRAL IOWA

CITY           SKY/WX    TMP DP  RH WIND       PRES   REMARKS
ALGONA *       MOSUNNY   70  46  43 CALM      29.89S
CLARION *      SUNNY     68  48  49 VRB5      29.90R
ESTHERVILLE    CLOUDY    69  47  45 N5        29.89S
6HR MIN TEMP:  62; 6HR MAX TEMP:  69; 6HR PCP: TRACE;

FORT DODGE *   SUNNY     68  48  49 E10       29.91R
MASON CITY     SUNNY     68  47  46 NE8       29.90S
6HR MIN TEMP:  64; 6HR MAX TEMP:  71; 6HR PCP:  0.01;

FOREST CITY *    N/A     66  37  34 NE3       29.89S
WEBSTER CITY * MOSUNNY   66  54  63 NE8       29.88R
IOWA FALLS *   PTSUNNY   67  54  63 NE9       29.90R
$$

IAZ007>011-017>019-026>030-037>042-050>054-066-280100-
   NORTHEAST IOWA

CITY           SKY/WX    TMP DP  RH WIND       PRES   REMARKS
CEDAR RAPIDS   CLOUDY    62  62 100 N13       29.85F
6HR MIN TEMP:  61; 6HR MAX TEMP:  73; 6HR PCP:  0.11;

CHARLES CITY * CLOUDY    63  55  77 E7        29.89F
CLINTON *      CLOUDY    70  65  84 N6        29.86R
DECORAH *      LGT RAIN  63  54  72 NE6       29.88F
DUBUQUE        RAIN      68  64  87 S6        29.87S FOG
6HR MIN TEMP:  68; 6HR MAX TEMP:  75; 6HR PCP:  0.03;

MONTICELLO *   LGT RAIN  66  64  94 NW5       29.88R
OELWEIN *      CLOUDY    64  57  77 N7        29.89R
WATERLOO       CLOUDY    61  55  81 N8        29.88R
6HR MIN TEMP:  61; 6HR MAX TEMP:  74; 6HR PCP:  0.08;

$$

IAZ064-065-067-068-078-280100-
   EAST CENTRAL IOWA

CITY           SKY/WX    TMP DP  RH WIND       PRES   REMARKS
DAVENPORT      CLOUDY    70  63  78 N7        29.85R
6HR MIN TEMP:  70; 6HR MAX TEMP:  76;

IOWA CITY      CLOUDY    68  63  84 N8        29.85F
6HR MIN TEMP:  68; 6HR MAX TEMP:  75; 6HR PCP:  0.01;

MT. PLEASANT * CLOUDY    73  62  68 S3        29.80F
MUSCATINE *    CLOUDY    73  64  73 NE7       29.82F
QUAD CITIES    CLOUDY    73  62  68 N5        29.82S
6HR MIN TEMP:  71; 6HR MAX TEMP:  78;

$$

IAZ062-063-075>077-085>089-095>099-280100-
   SOUTHEAST IOWA

CITY           SKY/WX    TMP DP  RH WIND       PRES   REMARKS
BURLINGTON     CLOUDY    73  64  73 CALM      29.79F
6HR MIN TEMP:  69; 6HR MAX TEMP:  75;

FAIRFIELD *    CLOUDY    72  63  73 NE6       29.82S
FORT MADISON * CLOUDY    72  66  83 NE3       29.80F
KEOKUK *       CLOUDY    72  63  73 CALM      29.78F
OSKALOOSA *    PTSUNNY   64  60  85 N16       29.84F
OTTUMWA        CLOUDY    67  62  84 N14       29.83S
6HR MIN TEMP:  67; 6HR MAX TEMP:  76;

WASHINGTON *   CLOUDY    72  64  78 NE9       29.83F
$$

ABBREVIATIONS USED IN REMARKS
   TC - TEMPERATURES IN CELSIUS
  WCI - WIND CHILL INDEX
   HX - HEAT INDEX
  VSB - VISIBILITY
$$





USA.gov is the U.S. government's official web portal to all federal, state and local government web resources and services.